| time (UTC) | temp C | wind direction | speed KPH | gust KPH | rain 1hr cm | rain 24hr cm | rain mn cm | humidity % | barometer mb |
| 20260502185629 | 19 | 155 | 11.3 | 20.9 | 0.00 | 0.00 | 0.00 | 25 | 1019.9 |
| 20260502184637 | 19 | 194 | 16.1 | 24.1 | 0.00 | 0.00 | 0.00 | 26 | 1020.0 |
| 20260502183624 | 19 | 173 | 14.5 | 25.7 | 0.00 | 0.00 | 0.00 | 27 | 1020.1 |
| 20260502182651 | 18 | 153 | 12.9 | 24.1 | 0.00 | 0.00 | 0.00 | 29 | 1020.1 |
| 20260502181621 | 18 | 163 | 16.1 | 22.5 | 0.00 | 0.00 | 0.00 | 30 | 1020.3 |
| 20260502180628 | 19 | 198 | 11.3 | 19.3 | 0.00 | 0.00 | 0.00 | 29 | 1020.4 |
| 20260502163619 | 15 | 115 | 6.4 | 11.3 | 0.00 | 0.00 | 0.00 | 38 | 1020.8 |
| 20260502162628 | 15 | 58 | 3.2 | 8.0 | 0.00 | 0.00 | 0.00 | 39 | 1020.9 |
| 20260502161621 | 14 | 17 | 4.8 | 9.7 | 0.00 | 0.00 | 0.00 | 41 | 1020.9 |
| 20260502160629 | 14 | 11 | 4.8 | 9.7 | 0.00 | 0.00 | 0.00 | 41 | 1020.8 |
| 20260502151624 | 12 | 34 | 8.0 | 12.9 | 0.00 | 0.00 | 0.00 | 45 | 1021.1 |
| 20260502150613 | 12 | 47 | 6.4 | 12.9 | 0.00 | 0.00 | 0.00 | 44 | 1021.1 |
| 20260502130637 | 7 | 319 | 9.7 | 14.5 | 0.00 | 0.00 | 0.00 | 57 | 1020.7 |
| 20260502123615 | 5 | 360 | 4.8 | 14.5 | 0.00 | 0.00 | 0.00 | 64 | 1020.6 |
| 20260502122623 | 3 | 333 | 8.0 | 12.9 | 0.00 | 0.00 | 0.00 | 72 | 1020.5 |
| 20260502121632 | 3 | 346 | 6.4 | 9.7 | 0.00 | 0.00 | 0.00 | 72 | 1020.4 |
| 20260502120626 | 3 | 36 | 6.4 | 8.0 | 0.00 | 0.00 | 0.00 | 71 | 1020.4 |
| 20260502115627 | 3 | 338 | 6.4 | 12.9 | 0.00 | 0.00 | 0.00 | 70 | 1020.4 |
| 20260502114637 | 3 | 355 | 6.4 | 8.0 | 0.00 | 0.00 | 0.00 | 68 | 1020.4 |
| 20260502113626 | 5 | 36 | 6.4 | 9.7 | 0.00 | 0.00 | 0.00 | 59 | 1020.4 |
| 20260502112618 | 8 | 10 | 3.2 | 12.9 | 0.00 | 0.00 | 0.00 | 51 | 1020.2 |
| 20260502111627 | 7 | 288 | 9.7 | 12.9 | 0.00 | 0.00 | 0.00 | 55 | 1020.3 |
| 20260502110616 | 5 | 340 | 9.7 | 17.7 | 0.00 | 0.00 | 0.00 | 62 | 1020.4 |
| 20260502105636 | 7 | 13 | 8.0 | 12.9 | 0.00 | 0.00 | 0.00 | 54 | 1020.3 |
| 20260502104623 | 9 | 286 | 4.8 | 16.1 | 0.00 | 0.00 | 0.00 | 46 | 1020.2 |
| 20260502103615 | 8 | 278 | 9.7 | 16.1 | 0.00 | 0.00 | 0.00 | 49 | 1020.2 |
| 20260502102625 | 7 | 278 | 3.2 | 12.9 | 0.00 | 0.00 | 0.00 | 52 | 1020.2 |
| 20260502101614 | 7 | 275 | 3.2 | 12.9 | 0.00 | 0.00 | 0.00 | 53 | 1020.3 |
| 20260502100628 | 7 | 281 | 4.8 | 11.3 | 0.00 | 0.00 | 0.00 | 54 | 1020.2 |
| 20260502090614 | 7 | 360 | 3.2 | 8.0 | 0.00 | 0.00 | 0.00 | 55 | 1020.2 |
| 20260502070631 | 5 | 343 | 8.0 | 9.7 | 0.00 | 0.00 | 0.00 | 67 | 1020.2 |
| 20260502065629 | 7 | 28 | 4.8 | 9.7 | 0.00 | 0.00 | 0.00 | 58 | 1020.1 |
| 20260502064624 | 8 | 323 | 6.4 | 9.7 | 0.00 | 0.00 | 0.00 | 54 | 1020.0 |
| 20260502063614 | 8 | 355 | 6.4 | 9.7 | 0.00 | 0.00 | 0.00 | 52 | 1019.9 |
| 20260502062624 | 8 | 12 | 6.4 | 9.7 | 0.00 | 0.00 | 0.00 | 54 | 1019.8 |
| 20260502061612 | 10 | 340 | 8.0 | 12.9 | 0.00 | 0.00 | 0.00 | 48 | 1019.7 |
| 20260502060614 | 10 | 290 | 8.0 | 12.9 | 0.00 | 0.00 | 0.00 | 44 | 1019.7 |
| 20260502055613 | 10 | 269 | 9.7 | 16.1 | 0.00 | 0.00 | 0.00 | 46 | 1019.6 |
| 20260502054621 | 8 | 302 | 4.8 | 12.9 | 0.00 | 0.00 | 0.00 | 52 | 1019.6 |
| 20260502053628 | 6 | 344 | 3.2 | 8.0 | 0.00 | 0.00 | 0.00 | 62 | 1019.6 |
| 20260502052614 | 6 | 343 | 4.8 | 12.9 | 0.00 | 0.00 | 0.00 | 65 | 1019.6 |
| 20260502051627 | 6 | 355 | 6.4 | 12.9 | 0.00 | 0.00 | 0.00 | 64 | 1019.5 |
| 20260502050615 | 7 | 355 | 4.8 | 9.7 | 0.00 | 0.00 | 0.00 | 59 | 1019.4 |
| 20260502045613 | 8 | 360 | 6.4 | 9.7 | 0.00 | 0.00 | 0.00 | 53 | 1019.4 |
| 20260502044620 | 8 | 360 | 4.8 | 8.0 | 0.00 | 0.00 | 0.00 | 54 | 1019.3 |
| 20260502043613 | 10 | 350 | 3.2 | 6.4 | 0.00 | 0.00 | 0.00 | 46 | 1019.3 |
| 20260502042621 | 10 | 346 | 4.8 | 8.0 | 0.00 | 0.00 | 0.00 | 45 | 1019.3 |
| 20260502041628 | 9 | 321 | 1.6 | 6.4 | 0.00 | 0.00 | 0.00 | 48 | 1019.3 |
| 20260502040621 | 8 | 337 | 0.0 | 4.8 | 0.00 | 0.00 | 0.00 | 51 | 1019.2 |
| 20260502035620 | 9 | 331 | 1.6 | 6.4 | 0.00 | 0.00 | 0.00 | 52 | 1019.2 |
| 20260502034627 | 10 | 22 | 6.4 | 8.0 | 0.00 | 0.00 | 0.00 | 46 | 1019.0 |
| 20260502033618 | 11 | 19 | 4.8 | 8.0 | 0.00 | 0.00 | 0.00 | 45 | 1018.9 |
| 20260502032631 | 12 | 355 | 4.8 | 9.7 | 0.00 | 0.00 | 0.00 | 38 | 1018.8 |
| 20260502031642 | 13 | 21 | 4.8 | 8.0 | 0.00 | 0.00 | 0.00 | 35 | 1018.6 |
| 20260502030631 | 14 | 252 | 6.4 | 11.3 | 0.00 | 0.00 | 0.00 | 29 | 1018.4 |
| 20260502025612 | 14 | 289 | 6.4 | 11.3 | 0.00 | 0.00 | 0.00 | 28 | 1018.3 |
| 20260502024639 | 14 | 262 | 6.4 | 11.3 | 0.00 | 0.00 | 0.00 | 29 | 1018.2 |
| 20260502023631 | 14 | 263 | 4.8 | 11.3 | 0.00 | 0.00 | 0.00 | 28 | 1018.2 |
| 20260502022620 | 15 | 261 | 4.8 | 11.3 | 0.00 | 0.00 | 0.00 | 29 | 1018.2 |
| 20260502021631 | 15 | 276 | 6.4 | 11.3 | 0.00 | 0.00 | 0.00 | 29 | 1018.1 |
| 20260502020620 | 15 | 269 | 6.4 | 12.9 | 0.00 | 0.00 | 0.00 | 30 | 1018.1 |
| 20260502015623 | 16 | 277 | 6.4 | 9.7 | 0.00 | 0.00 | 0.00 | 30 | 1018.1 |
| 20260502014631 | 17 | 265 | 6.4 | 9.7 | 0.00 | 0.00 | 0.00 | 28 | 1018.1 |
| 20260502013622 | 18 | 259 | 4.8 | 9.7 | 0.00 | 0.00 | 0.00 | 28 | 1018.1 |
| 20260502012615 | 19 | 319 | 3.2 | 6.4 | 0.00 | 0.00 | 0.00 | 23 | 1018.1 |
| 20260502011624 | 20 | 314 | 4.8 | 6.4 | 0.00 | 0.00 | 0.00 | 21 | 1018.0 |
| 20260502010614 | 20 | 310 | 3.2 | 8.0 | 0.00 | 0.00 | 0.00 | 20 | 1018.1 |
| 20260502005652 | 20 | 305 | 4.8 | 14.5 | 0.00 | 0.00 | 0.00 | 20 | 1018.1 |
| 20260502004619 | 20 | 317 | 8.0 | 14.5 | 0.00 | 0.00 | 0.00 | 19 | 1018.1 |
| 20260502003632 | 19 | 279 | 4.8 | 11.3 | 0.00 | 0.00 | 0.00 | 18 | 1018.2 |
| 20260502002620 | 19 | 340 | 8.0 | 12.9 | 0.00 | 0.00 | 0.00 | 20 | 1018.2 |
| 20260502001628 | 19 | 61 | 8.0 | 14.5 | 0.00 | 0.00 | 0.00 | 23 | 1018.2 |
| 20260502000619 | 19 | 92 | 6.4 | 9.7 | 0.00 | 0.00 | 0.00 | 19 | 1018.3 |
| 20260501235620 | 19 | 55 | 4.8 | 12.9 | 0.00 | 0.00 | 0.00 | 20 | 1018.3 |
| 20260501234612 | 19 | 46 | 4.8 | 16.1 | 0.00 | 0.00 | 0.00 | 22 | 1018.4 |
| 20260501233642 | 19 | 20 | 3.2 | 9.7 | 0.00 | 0.00 | 0.00 | 22 | 1018.4 |
| 20260501232631 | 19 | 73 | 4.8 | 14.5 | 0.00 | 0.00 | 0.00 | 26 | 1018.5 |
| 20260501231626 | 19 | 144 | 1.6 | 14.5 | 0.00 | 0.00 | 0.00 | 20 | 1018.4 |
| 20260501230616 | 19 | 57 | 9.7 | 19.3 | 0.00 | 0.00 | 0.00 | 21 | 1018.5 |
| 20260501225617 | 19 | 13 | 6.4 | 14.5 | 0.00 | 0.00 | 0.00 | 20 | 1018.6 |
| 20260501224646 | 19 | 44 | 6.4 | 14.5 | 0.00 | 0.00 | 0.00 | 21 | 1018.7 |
| 20260501223618 | 19 | 47 | 9.7 | 14.5 | 0.00 | 0.00 | 0.00 | 18 | 1018.8 |
| 20260501222628 | 19 | 342 | 1.6 | 16.1 | 0.00 | 0.00 | 0.00 | 19 | 1018.9 |
| 20260501221619 | 18 | 22 | 3.2 | 9.7 | 0.00 | 0.00 | 0.00 | 21 | 1019.0 |
| 20260501220614 | 18 | 85 | 3.2 | 12.9 | 0.00 | 0.00 | 0.00 | 20 | 1019.2 |
| 20260501215615 | 18 | 60 | 8.0 | 19.3 | 0.00 | 0.00 | 0.00 | 21 | 1019.3 |
| 20260501214626 | 18 | 62 | 3.2 | 12.9 | 0.00 | 0.00 | 0.00 | 23 | 1019.4 |
| 20260501213616 | 18 | 80 | 4.8 | 17.7 | 0.00 | 0.00 | 0.00 | 26 | 1019.6 |
| 20260501212630 | 18 | 33 | 8.0 | 20.9 | 0.00 | 0.00 | 0.00 | 26 | 1019.6 |
| 20260501211620 | 18 | 59 | 12.9 | 20.9 | 0.00 | 0.00 | 0.00 | 26 | 1019.6 |
| 20260501210628 | 18 | 28 | 4.8 | 19.3 | 0.00 | 0.00 | 0.00 | 24 | 1019.8 |
| 20260501205628 | 18 | 61 | 12.9 | 20.9 | 0.00 | 0.00 | 0.00 | 25 | 1019.8 |
| 20260501204620 | 18 | 44 | 8.0 | 19.3 | 0.00 | 0.00 | 0.00 | 24 | 1019.9 |
| 20260501203627 | 17 | 5 | 6.4 | 20.9 | 0.00 | 0.00 | 0.00 | 28 | 1020.0 |
| 20260501202615 | 17 | 65 | 9.7 | 25.7 | 0.00 | 0.00 | 0.00 | 30 | 1020.0 |
| 20260501201625 | 17 | 14 | 6.4 | 19.3 | 0.00 | 0.00 | 0.00 | 30 | 1020.1 |
| 20260501200618 | 17 | 70 | 14.5 | 20.9 | 0.00 | 0.00 | 0.00 | 28 | 1020.1 |
| 20260501195618 | 17 | 300 | 8.0 | 17.7 | 0.00 | 0.00 | 0.00 | 25 | 1020.3 |
| 20260501194646 | 17 | 348 | 9.7 | 19.3 | 0.00 | 0.00 | 0.00 | 27 | 1020.3 |
| 20260501193614 | 17 | 342 | 11.3 | 19.3 | 0.00 | 0.00 | 0.00 | 24 | 1020.4 |
| 20260501192627 | 17 | 24 | 11.3 | 17.7 | 0.00 | 0.00 | 0.00 | 30 | 1020.3 |
| 20260501191615 | 16 | 94 | 3.2 | 14.5 | 0.00 | 0.00 | 0.00 | 30 | 1020.6 |
| 20260501190622 | 16 | 71 | 9.7 | 17.7 | 0.00 | 0.00 | 0.00 | 29 | 1020.7 |